Regional Weather Roundup
Issued by NWS

Home | Current Version | Previous Version | Text Only | Print | Product List | Glossary On
Versions: 1 2 3 4 5 6 7 8 9 10 11 12 13 14 15 16 17 18 19 20 21 22 23 24 25 26 27 28 29 30 31 32 33 34 35 36 37 38 39 40 41 42 43 44 45 46 47 48 49 50
000
ASUS43 KMKX 220711
RWRWI

WISCONSIN REGIONAL WEATHER ROUNDUP
NATIONAL WEATHER SERVICE MILWAUKEE/SULLIVAN WI
200 AM CDT SAT JUL 22 2017

NOTE: "FAIR" INDICATES FEW OR NO CLOUDS BELOW 12,000 FEET WITH NO
SIGNIFICANT WEATHER AND/OR OBSTRUCTIONS TO VISIBILITY.

WIZ001-002-006>008-014>016-023>028-220800-
NORTHWEST WISCONSIN

CITY           SKY/WX    TMP DP  RH WIND       PRES   REMARKS
SUPERIOR ARPT  NOT AVBL
ASHLAND        CLOUDY    61  61 100 CALM      29.78R
HAYWARD        CLOUDY    65  64  97 SW3       29.79R
SIREN          CLOUDY    64  63  94 CALM      29.78S
CUMBERLAND     CLOUDY    63  61  94 CALM      29.79R
RICE LAKE      CLOUDY    64  63  94 E7        29.77F
CHETEK         CLOUDY    64  64  98 E8        29.77F
LADYSMITH      CLOUDY    65  64  95 CALM      29.81S
EAU CLAIRE     CLEAR     67  64  90 CALM      29.77F
MENOMONIE      PTCLDY    67  65  91 CALM      29.78F
NEW RICHMOND   MOCLDY    69  60  73 S7        29.76F
OSCEOLA        CLOUDY    68  63  83 NE7       29.80R
$$

WIZ003>005-009-010-017-018-220800-
NORTH CENTRAL WISCONSIN

CITY           SKY/WX    TMP DP  RH WIND       PRES   REMARKS
MANITOWISH WTR PTCLDY    67  67 100 CALM      29.81R
ARBOR VITAE    CLOUDY    67  65  93 S6        29.81R
WOODRUFF       CLOUDY    67  65  93 S6        29.81R
RHINELANDER    PTCLDY    66  64  93 S3        29.84F
EAGLE RIVER    CLOUDY    67  60  78 CALM      29.82F
LAND O LAKES   MOCLDY    67  63  88 CALM      29.83F
PHILLIPS       CLOUDY    67  66  99 S6        29.79R
TOMAHAWK         N/A     66  64  93 CALM      29.82S
MEDFORD        CLOUDY    65  64  98 S6        29.81F FOG
MERRILL        CLOUDY    66  66 100 S6        29.82F
$$

WIZ029-030-035-036-043>047-220800-
CENTRAL WISCONSIN

CITY           SKY/WX    TMP DP  RH WIND       PRES   REMARKS
WAUSAU         CLOUDY    66  63  90 SE5       29.80F
MOSINEE        PTCLDY    64  63  94 E5        29.84F
MARSHFIELD     FOG       66  64  93 SE7       29.81F VSB 1/2
STEVENS POINT  CLOUDY    64  64 100 SE3       29.86F
WAUPACA        CLOUDY    68  66  93 CALM      29.85F
WAUTOMA        CLOUDY    66  65  96 E3        29.85F
WISC RAPIDS    CLOUDY    67  66  97 E5        29.85F
CAMP DOUGLAS   CLOUDY    70  70 100 SE6       29.84R
$$

WIZ011>013-019>022-031-037>040-048>050-220800-
NORTHEAST WISCONSIN

CITY           SKY/WX    TMP DP  RH WIND       PRES   REMARKS
ANTIGO         CLOUDY    62  59  92 S3        29.83F
SHAWANO        CLOUDY    71  63  75 CALM      29.85F
OCONTO         CLOUDY    65  63  94 S3        29.85F
STURGEON BAY     N/A     70  62  76 SW12      29.85F
GREEN BAY      CLOUDY    70  63  78 S8        29.87S
MANITOWOC      CLOUDY    68  59  73 CALM      29.87F
APPLETON       LGT RAIN  68  59  73 SE5       29.84F
CLINTONVILLE   CLOUDY    68  61  77 S3        29.85F
OSHKOSH        CLOUDY    66  62  87 CALM      29.84F
$$

WIZ032>034-041-042-053>061-220800-
SOUTHWEST WISCONSIN

CITY           SKY/WX    TMP DP  RH WIND       PRES   REMARKS
LA CROSSE      CLOUDY    73  70  90 E3        29.83F
SPARTA         CLOUDY    66  66 100 NE3       29.84F
VIROQUA        CLOUDY    69  69 100 E9        29.84R
BOSCOBEL       CLOUDY    72  70  93 NE6       29.80F
PRAIRIE DU CHI CLOUDY    71  70  96 CALM      29.81R
PLATTEVILLE    CLOUDY    70  70 100 CALM      29.79F
$$

WIZ056-057-062-063-064-067-068-220800-
SOUTH CENTRAL WISCONSIN

CITY           SKY/WX    TMP DP  RH WIND       PRES   REMARKS
REEDSBURG      CLOUDY    67  67 100 NE3       29.83F
BARABOO/DELLS  CLOUDY    65  64  94 E3        29.82F FOG
LONE ROCK      CLOUDY    70  68  93 E5        29.81F
MINERAL POINT  LGT RAIN  72  72 100 E6        29.81F
MADISON        CLOUDY    66  65  96 E7        29.81F FOG
MIDDLETON      CLOUDY    68  68 100 E7        29.82F
WATERTOWN      CLOUDY    64  64 100 E5        29.84F
MONROE         TSTM      70  68  94 SW14      29.82S
JANESVILLE     LGT RAIN  72  72 100 S7        29.83F
$$

WIZ051-052-058>065-066-070>072-220800-
SOUTHEAST WISCONSIN

CITY           SKY/WX    TMP DP  RH WIND       PRES   REMARKS
MILWAUKEE      LGT RAIN  69  67  93 NE5       29.85F
WAUKESHA       CLOUDY    63  61  94 E5        29.84F
MILWAUKEE/TIMM LGT RAIN  64  59  82 CALM      29.86F
RACINE         CLOUDY    71  71 100 NE5       29.85F
KENOSHA        CLOUDY    73  71  93 NE6       29.83F
FOND DU LAC    CLOUDY    65  60  84 SE8       29.85F
SHEBOYGAN      CLOUDY    64  63  96 CALM      29.87S
WEST BEND      DRIZZLE   61  61 100 E3        29.85F
JUNEAU         CLOUDY    64  62  93 E5        29.85F
$$

LSZ147-162-220800-
LAKE SUPERIOR

STATION/POSITION TIME  TEMP    WIND        PRES    WAVE
                       AIR SEA DIR/SP/G            HT/PER
                 (UTC) (F)     (DEG/KT/KT) (MB)    (FT/S)
W MID LAKE BUOY  0650   51 48   30/ 12/ 14 1008.9F   1
DEVILS ISLAND    0700   58      70/ 14/ 16 1008.3F
SAXON HARBOR     0640   66      40/  5/ 10 1008.1R
$$

LMZ867-665-643>646-220800-
LAKE MICHIGAN

STATION/POSITION TIME  TEMP    WIND        PRES    WAVE
                       AIR SEA DIR/SP/G            HT/PER
                 (UTC) (F)     (DEG/KT/KT) (MB)    (FT/S)
CHAMBERS ISLAND  0640   71     170/  3/  8 1010.8R
S GREEN BAY BUOY 0700   72 74  180/ 17/ 19 1011.1
N MID LAKE BUOY  0650   69 67  200/ 10/ 12 1011.2F
NORTHPORT PIER   0640   70     180/  4/  9 1010.8S
KEWAUNEE LAKESHO 0642   66     170/ 10/ 12 1011.1F
SHEBOYGAN LAKESH 0700   67     100/  5/  6 1010.6F
PORT WASHINGTON  0640   66      90/  7/  9 1011.5F
ATWATER BUOY     0609   68 67   10/ 10/ 10 1011.1F
MILWAUKEE LAKESH 0650   68      20/  5/  6   N/A
S MID LAKE BUOY  0650   72 70  100/ 14/ 16 1010.2F   2/ 3
KENOSHA   LAKESH 0700   72      70/  4/  5 1009.8
$$

TC  - TEMPERATURE IN CELSIUS
VSB - VISIBILITY IN STATUTE MILES
WCI - WIND CHILL INDEX
HX  - HEAT INDEX




USA.gov is the U.S. government's official web portal to all federal, state and local government web resources and services.